Regional Weather Roundup
Issued by NWS Cleveland, OH

Home | Current Version | Previous Version | Text Only | Print | Product List | Glossary Off
Versions: 1 2 3 4 5 6 7 8 9 10 11 12 13 14 15 16 17 18 19 20 21 22 23 24 25 26 27 28 29 30 31 32 33 34 35 36 37 38 39 40 41 42 43 44 45 46 47 48 49 50

000
ASUS41 KCLE 290610
RWRCLE
OHIO REGIONAL WEATHER ROUNDUP
NATIONAL WEATHER SERVICE CLEVELAND, OH
100 AM EST THU JAN 29 2015

NOTE: "FAIR" INDICATES FEW OR NO CLOUDS BELOW 12,000 FEET WITH NO
SIGNIFICANT WEATHER AND/OR OBSTRUCTIONS TO VISIBILITY.

OHZ001>008-015>018-024>027-034-035-043-044-290700-
   NORTHWEST OHIO

CITY           SKY/WX    TMP DP  RH WIND       PRES   REMARKS
DEFIANCE       MOCLDY    29  18  63 S8G18     30.04F WCI  21
FINDLAY        CLOUDY    27  17  66 S17       30.06F WCI  14
TOLEDO EXPRESS CLOUDY    25  16  68 S6        30.07F WCI  18
TOLEDO EXEC    CLOUDY    27  16  63 S16       30.08F WCI  15
LIMA           MOCLDY    29  18  63 S18       30.05F WCI  16
$$

OHZ009>014-019>023-028>033-038-089-290700-
   NORTHEAST OHIO

CITY           SKY/WX    TMP DP  RH WIND       PRES   REMARKS
CLE-HOPKINS    CLOUDY    25  11  55 S16       30.17F WCI  12
CLE-LAKEFRONT  CLOUDY    27  12  53 S18G30    30.15F WCI  14
CUY CO. ARPT   NOT AVBL
LORAIN-ELYRIA  CLOUDY    24  13  62 S15       30.15F WCI  11
ASHTABULA      CLOUDY    22   8  55 S15       30.18F WCI   9
AKRON-CANTON   CLOUDY    23  11  60 S12       30.16F WCI  12
WOOSTER        CLOUDY    23  13  65 S12       30.16F WCI  12
MANSFIELD      CLOUDY    24  14  65 S18       30.12F WCI  10
YOUNGSTOWN     CLOUDY    21  10  62 SE12      30.18F WCI   9
$$

OHZ042-051>053-060>062-070>072-077>081-290700-
  SOUTHWEST OHIO

CITY           SKY/WX    TMP DP  RH WIND       PRES   REMARKS
CINC-COVINGTON CLOUDY    31  20  63 SE12      30.10F WCI  22
CINC-LUNKEN    MOCLDY    30  19  63 S6        30.15F WCI  24
HAMILTON       MOCLDY    33  20  58 SE6       30.12F WCI  28
DAYTON         CLOUDY    30  20  66 SE16      30.08F WCI  19
WRIGHT-PAT AFB MOCLDY    29  19  68 SE9       30.11F WCI  20
DAYTON GENERAL MOCLDY    30  20  66 S12       30.09F WCI  20
WILMINGTON     MOCLDY    28  18  66 SE10      30.11F WCI  19
$$

OHZ036-037-039>041-045>050-054>059-063>069-073>076-082>088-290700-
  CENTRAL AND SOUTHEAST OHIO

CITY           SKY/WX    TMP DP  RH WIND       PRES   REMARKS
COLUMBUS       CLOUDY    25  14  63 SE12      30.15F WCI  14
OSU AIRPORT    CLOUDY    26  15  63 SE10      30.14F WCI  16
BOLTON FIELD   CLOUDY    26  17  69 SE7       30.15F WCI  18
RICKENBACK AFB CLOUDY    26  17  67 SE8       30.16F WCI  18
NEWARK         CLOUDY    24  14  65 SE3       30.18F
MARION         CLOUDY    26  15  63 S16       30.12F WCI  14
LANCASTER      MOCLDY    27  15  61 SE9       30.18F WCI  18
ZANESVILLE     CLOUDY    23  13  65 SE5       30.19F WCI  17
NEW PHILLY     CLOUDY    23  12  62 S5        30.21F WCI  17
$$


USA.gov is the U.S. government's official web portal to all federal, state and local government web resources and services.